Temp
-7 -7 -7 -7 -7 -7 -7 -7 -7 -7 -7 -7 -7 -7 -7 -7 -7 -7 -7 -7 -7 -7 -7 -7 -7 -7 -7 -7 -7 -6 -6 -7 -7 -7 -7 -7 -7 -6 -6 -6 -6 -6 -6 -6 -6 -6 -6 -6 -6 -6 -6 -6 -6 -6 -6 -6 -6 -6 -6 -6 -6 -6 -6 -6 -6 -6 -6 -6 -6 -6 -6 -6 -6 -6
-7 -7 -7 -7 -7 -7 -7 -7 -7 -7 -7 -7 -7 -7 -7 -7 -7 -7 -7 -7 -7 -7 -7 -6 -7 -7 -6 -6 -6 -6 -6 -6 -6 -7 -7 -7 -6 -6 -6 -6 -6 -6 -6 -6 -6 -6 -6 -6 -6 -6 -6 -6 -6 -6 -6 -6 -6 -6 -6 -6 -6 -6 -6 -6 -6 -6 -6 -6 -6 -6 -6 -6 -6 -6
-7 -7 -7 -7 -7 -7 -7 -7 -7 -7 -7 -7 -7 -7 -7 -7 -6 -6 -6 -7 -7 -6 -6 -6 -6 -6 -6 -6 -6 -6 -6 -6 -6 -6 -6 -6 -6 -6 -6 -6 -6 -6 -6 -6 -6 -6 -6 -6 -6 -6 -6 -6 -6 -6 -6 -6 -6 -6 -6 -6 -6 -6 -6 -6 -6 -6 -6 -6 -6 -6 -6 -6 -6 -6
-6 -7 -7 -7 -7 -7 -7 -7 -7 -6 -6 -7 -6 -6 -6 -6 -6 -6 -6 -6 -6 -6 -6 -6 -6 -6 -6 -6 -6 -6 -6 -6 -6 -6 -6 -6 -6 -6 -6 -6 -6 -6 -6 -6 -6 -6 -6 -6 -6 -6 -6 -6 -6 -6 -6 -6 -6 -6 -6 -6 -6 -6 -6 -6 -6 -6 -5 -5 -6 -6 -6 -6 -6 -6
-6 -6 -7 -7 -7 -7 -7 -7 -7 -6 -6 -6 -6 -6 -6 -6 -6 -6 -6 -6 -6 -6 -6 -6 -6 -6 -6 -6 -6 -6 -6 -6 -6 -6 -6 -6 -6 -6 -6 -6 -6 -6 -6 -6 -6 -6 -6 -6 -6 -6 -6 -6 -6 -6 -6 -6 -6 -6 -6 -6 -6 -6 -6 -6 -6 -6 -6 -6 -5 -5 -5 -6 -6 -6
-6 -6 -6 -6 -6 -6 -7 -7 -6 -6 -6 -6 -6 -6 -6 -6 -6 -6 -6 -6 -5 -6 -6 -6 -6 -6 -6 -6 -5 -5 -5 -5 -6 -6 -6 -6 -6 -6 -5 -5 -5 -5 -5 -5 -6 -6 -6 -6 -6 -6 -6 -6 -6 -6 -6 -6 -6 -6 -6 -6 -6 -6 -6 -6 -6 -6 -6 -6 -6 -5 -5 -5 -5 -6
-6 -6 -6 -6 -6 -6 -6 -6 -6 -6 -6 -6 -6 -6 -6 -6 -6 -6 -6 -5 -5 -5 -5 -6 -6 -6 -6 -5 -5 -5 -5 -5 -5 -5 -5 -5 -5 -5 -5 -5 -5 -5 -5 -5 -6 -6 -6 -6 -6 -6 -6 -6 -6 -6 -6 -6 -6 -6 -6 -6 -6 -6 -6 -6 -6 -6 -6 -6 -6 -6 -6 -5 -5 -5
-6 -6 -6 -6 -6 -6 -6 -6 -6 -6 -6 -6 -6 -6 -6 -6 -6 -6 -6 -6 -5 -5 -5 -5 -6 -5 -5 -5 -5 -5 -5 -5 -5 -5 -5 -5 -5 -5 -5 -5 -5 -5 -5 -5 -5 -6 -6 -6 -6 -6 -6 -6 -6 -6 -6 -6 -6 -6 -6 -6 -6 -6 -6 -6 -6 -6 -6 -6 -6 -6 -6 -6 -5 -5
-6 -6 -6 -6 -6 -6 -6 -6 -6 -6 -6 -6 -6 -6 -6 -6 -6 -6 -6 -6 -6 -6 -6 -6 -6 -6 -5 -5 -5 -5 -5 -5 -5 -5 -5 -5 -5 -5 -6 -6 -6 -5 -5 -5 -5 -6 -6 -6 -6 -6 -6 -6 -6 -6 -6 -6 -6 -6 -6 -6 -6 -6 -6 -6 -6 -6 -6 -6 -6 -6 -6 -6 -6 -6
-6 -6 -6 -6 -6 -6 -6 -6 -6 -6 -6 -6 -6 -6 -6 -6 -6 -6 -6 -6 -6 -6 -6 -6 -6 -6 -6 -6 -6 -6 -5 -5 -5 -5 -5 -5 -5 -5 -5 -6 -6 -6 -5 -5 -5 -5 -6 -6 -6 -6 -6 -6 -6 -6 -6 -6 -6 -6 -6 -6 -6 -6 -6 -6 -6 -6 -6 -6 -6 -6 -6 -6 -6 -6
-6 -6 -6 -6 -6 -6 -6 -6 -6 -6 -6 -6 -6 -6 -6 -6 -6 -6 -6 -6 -6 -6 -6 -6 -6 -6 -6 -6 -6 -6 -6 -6 -6 -6 -5 -5 -5 -5 -5 -5 -5 -5 -6 -6 -5 -5 -5 -6 -6 -6 -6 -6 -6 -6 -6 -6 -6 -6 -6 -6 -6 -6 -6 -6 -6 -6 -6 -6 -5 -6 -6 -6 -6 -5
-6 -6 -6 -6 -6 -6 -6 -6 -6 -6 -6 -6 -6 -6 -6 -6 -6 -6 -6 -6 -6 -6 -6 -6 -6 -6 -6 -5 -5 -6 -6 -6 -6 -6 -6 -6 -6 -6 -6 -6 -5 -5 -5 -5 -5 -5 -5 -5 -6 -6 -6 -6 -6 -6 -6 -6 -6 -6 -6 -6 -6 -6 -6 -6 -6 -6 -6 -6 -6 -5 -6 -6 -6 -5
-6 -6 -6 -6 -6 -6 -6 -6 -6 -6 -6 -6 -6 -6 -6 -6 -6 -6 -6 -6 -6 -6 -6 -6 -6 -6 -6 -6 -5 -5 -5 -6 -6 -6 -6 -6 -6 -6 -6 -6 -6 -6 -6 -6 -5 -5 -5 -5 -6 -6 -6 -6 -6 -6 -6 -6 -6 -6 -6 -6 -6 -6 -6 -6 -6 -6 -6 -6 -6 -6 -6 -6 -6 -6
-6 -6 -6 -6 -6 -6 -6 -6 -6 -6 -6 -6 -6 -6 -6 -6 -6 -6 -6 -6 -6 -6 -6 -6 -6 -6 -6 -6 -6 -5 -5 -5 -5 -5 -6 -6 -6 -6 -6 -6 -6 -6 -6 -6 -6 -6 -5 -5 -6 -6 -6 -6 -6 -6 -6 -6 -6 -6 -6 -6 -6 -6 -6 -6 -6 -6 -6 -6 -6 -6 -6 -6 -6 -6
-6 -6 -6 -6 -6 -6 -6 -6 -6 -6 -6 -6 -6 -6 -6 -5 -6 -6 -6 -6 -5 -6 -6 -6 -6 -6 -5 -6 -6 -6 -6 -6 -6 -6 -6 -5 -5 -6 -6 -6 -6 -6 -6 -6 -6 -6 -6 -5 -5 -6 -6 -6 -6 -6 -6 -6 -6 -6 -6 -6 -6 -6 -6 -6 -6 -6 -6 -6 -6 -6 -6 -6 -6 -5
-6 -6 -6 -6 -6 -6 -6 -6 -6 -6 -6 -6 -6 -6 -5 -5 -5 -6 -6 -6 -6 -6 -6 -6 -6 -6 -6 -6 -6 -6 -6 -6 -6 -6 -6 -6 -6 -6 -6 -6 -6 -6 -6 -6 -6 -6 -6 -6 -6 -6 -6 -6 -6 -6 -6 -6 -6 -6 -6 -6 -6 -6 -6 -6 -6 -6 -6 -6 -6 -6 -6 -6 -6 -6
-6 -6 -6 -6 -6 -6 -6 -6 -6 -6 -6 -6 -6 -6 -6 -6 -6 -6 -6 -6 -6 -6 -6 -6 -6 -6 -6 -6 -6 -6 -6 -6 -6 -6 -6 -6 -6 -6 -6 -6 -6 -6 -6 -6 -6 -6 -6 -6 -6 -6 -6 -6 -6 -6 -6 -6 -6 -6 -6 -6 -6 -6 -6 -6 -6 -6 -6 -6 -6 -6 -6 -6 -6 -6
-6 -6 -6 -6 -6 -6 -6 -6 -6 -6 -6 -6 -6 -6 -6 -6 -6 -6 -6 -6 -6 -6 -6 -6 -6 -6 -6 -6 -6 -6 -6 -6 -6 -6 -6 -6 -6 -6 -6 -6 -6 -6 -6 -6 -6 -6 -6 -6 -6 -6 -6 -6 -6 -6 -6 -6 -6 -6 -6 -6 -6 -6 -6 -6 -6 -6 -6 -6 -6 -6 -6 -6 -6 -6
-6 -6 -6 -6 -6 -6 -6 -6 -6 -6 -6 -6 -6 -6 -6 -5 -6 -6 -6 -6 -6 -6 -6 -6 -6 -6 -6 -6 -6 -6 -6 -6 -6 -6 -6 -6 -6 -6 -6 -6 -6 -6 -6 -6 -6 -6 -6 -6 -6 -6 -5 -5 -6 -6 -6 -6 -6 -6 -6 -6 -6 -6 -6 -6 -6 -6 -6 -6 -6 -6 -6 -6 -6 -6
-6 -6 -6 -6 -6 -6 -6 -5 -6 -6 -6 -6 -6 -6 -5 -5 -5 -6 -6 -6 -6 -6 -6 -6 -6 -6 -6 -6 -6 -6 -6 -6 -6 -6 -6 -6 -6 -6 -6 -6 -7 -7 -6 -6 -6 -6 -6 -6 -6 -6 -5 -5 -6 -6 -6 -6 -6 -6 -6 -6 -6 -6 -6 -6 -6 -6 -6 -6 -6 -6 -6 -6 -6 -6
-6 -6 -6 -6 -6 -6 -6 -5 -5 -5 -5 -5 -6 -6 -5 -5 -5 -5 -6 -6 -6 -6 -6 -6 -6 -6 -6 -6 -6 -6 -6 -6 -6 -6 -6 -6 -6 -6 -6 -6 -6 -6 -7 -7 -6 -6 -6 -5 -6 -6 -6 -5 -6 -6 -6 -6 -6 -6 -6 -6 -6 -6 -6 -6 -6 -6 -6 -6 -6 -7 -7 -6 -6 -6
-6 -6 -6 -6 -6 -6 -5 -5 -5 -5 -5 -5 -5 -5 -5 -5 -5 -6 -6 -6 -6 -6 -6 -6 -6 -6 -6 -6 -6 -6 -6 -6 -6 -6 -6 -6 -6 -6 -6 -6 -6 -6 -7 -7 -6 -6 -6 -5 -5 -6 -6 -6 -6 -6 -6 -6 -6 -6 -6 -6 -6 -6 -6 -6 -6 -6 -6 -6 -7 -7 -7 -7 -7 -7
-6 -6 -6 -6 -6 -6 -5 -5 -5 -5 -5 -5 -5 -5 -5 -5 -5 -6 -6 -6 -6 -6 -6 -6 -6 -6 -6 -6 -6 -6 -6 -6 -6 -6 -6 -6 -6 -6 -6 -6 -6 -6 -6 -6 -6 -6 -6 -5 -5 -5 -5 -5 -6 -6 -6 -5 -5 -5 -6 -6 -6 -6 -6 -6 -6 -6 -6 -6 -7 -7 -7 -7 -7 -7
-6 -6 -6 -6 -6 -6 -6 -5 -5 -5 -5 -5 -5 -5 -5 -5 -6 -6 -6 -6 -6 -6 -6 -6 -6 -6 -6 -6 -6 -6 -6 -6 -6 -6 -6 -6 -6 -6 -6 -6 -6 -6 -6 -6 -6 -5 -5 -5 -5 -5 -5 -5 -5 -5 -6 -6 -5 -5 -5 -5 -6 -6 -6 -6 -6 -6 -6 -6 -6 -7 -7 -7 -7 -7
-7 -6 -7 -6 -6 -6 -7 -6 -6 -6 -6 -5 -5 -5 -6 -6 -6 -6 -6 -6 -6 -6 -6 -6 -6 -6 -6 -6 -6 -6 -6 -6 -6 -6 -6 -6 -6 -6 -6 -6 -6 -6 -5 -5 -5 -5 -5 -5 -5 -5 -5 -5 -5 -5 -5 -5 -5 -5 -5 -5 -5 -5 -5 -6 -6 -6 -6 -6 -7 -7 -7 -7 -7 -7
-7 -7 -7 -6 -6 -6 -6 -6 -6 -6 -6 -6 -6 -6 -6 -6 -6 -6 -6 -6 -6 -6 -6 -6 -6 -6 -6 -6 -6 -6 -6 -6 -6 -6 -6 -6 -6 -6 -6 -6 -6 -6 -5 -5 -5 -5 -5 -5 -5 -5 -5 -5 -5 -5 -5 -5 -5 -5 -5 -5 -5 -5 -5 -5 -6 -6 -6 -6 -7 -7 -7 -7 -7 -7
-7 -7 -7 -7 -6 -6 -6 -6 -7 -6 -6 -6 -6 -6 -6 -6 -6 -6 -6 -6 -6 -6 -6 -6 -6 -6 -6 -6 -6 -6 -6 -6 -6 -6 -6 -6 -6 -6 -6 -6 -6 -5 -5 -5 -5 -5 -5 -5 -5 -5 -5 -5 -5 -5 -5 -5 -5 -5 -5 -5 -5 -5 -5 -5 -5 -6 -6 -6 -7 -7 -7 -7 -7 -7
-7 -7 -7 -7 -7 -7 -6 -7 -7 -7 -7 -6 -6 -6 -6 -6 -6 -6 -6 -6 -6 -6 -6 -6 -6 -6 -6 -6 -6 -6 -6 -6 -6 -6 -6 -6 -6 -6 -6 -6 -6 -5 -5 -5 -5 -5 -5 -5 -5 -5 -5 -5 -5 -5 -5 -5 -5 -5 -5 -5 -6 -6 -5 -5 -6 -6 -6 -6 -7 -7 -7 -7 -7 -7
-8 -7 -7 -7 -7 -7 -7 -7 -7 -7 -7 -7 -6 -6 -7 -7 -6 -6 -6 -6 -6 -6 -6 -6 -6 -6 -6 -6 -6 -6 -6 -7 -6 -6 -6 -6 -6 -7 -7 -6 -6 -6 -6 -5 -5 -5 -5 -5 -5 -5 -5 -5 -5 -5 -5 -5 -5 -6 -6 -6 -6 -6 -6 -6 -6 -6 -6 -6 -7 -7 -7 -7 -7 -7
-8 -8 -8 -8 -7 -7 -7 -7 -7 -7 -7 -7 -7 -7 -7 -7 -7 -6 -6 -6 -6 -6 -6 -6 -6 -6 -6 -6 -6 -6 -7 -7 -7 -7 -6 -7 -7 -7 -7 -7 -6 -6 -6 -6 -6 -6 -6 -6 -6 -6 -6 -6 -6 -6 -6 -6 -6 -6 -6 -6 -6 -7 -7 -7 -7 -7 -7 -7 -7 -7 -7 -7 -8 -8
-8 -8 -8 -8 -8 -8 -8 -7 -7 -7 -7 -7 -7 -7 -7 -7 -7 -7 -7 -7 -7 -7 -6 -7 -7 -7 -7 -7 -7 -7 -7 -7 -7 -7 -7 -8 -8 -8 -7 -7 -6 -6 -6 -6 -6 -6 -6 -6 -6 -6 -6 -6 -6 -6 -6 -6 -6 -6 -7 -7 -7 -7 -7 -7 -7 -7 -7 -7 -7 -7 -7 -8 -8 -8
-8 -8 -8 -8 -8 -8 -8 -8 -8 -8 -8 -8 -8 -8 -8 -8 -7 -7 -7 -7 -7 -7 -7 -7 -7 -7 -7 -7 -7 -8 -8 -8 -8 -8 -8 -8 -8 -7 -7 -7 -7 -6 -6 -6 -6 -6 -6 -6 -6 -6 -6 -6 -6 -6 -6 -7 -7 -7 -7 -7 -7 -7 -7 -8 -8 -8 -8 -8 -8 -8 -8 -8 -8 -8
-9 -9 -9 -9 -9 -9 -8 -8 -8 -8 -8 -8 -8 -8 -8 -8 -8 -7 -7 -7 -7 -7 -7 -7 -7 -7 -7 -7 -7 -8 -8 -8 -8 -8 -8 -8 -7 -7 -7 -7 -7 -7 -7 -7 -7 -7 -7 -7 -7 -7 -7 -7 -7 -7 -7 -7 -7 -7 -7 -8 -8 -8 -8 -8 -8 -8 -8 -8 -8 -8 -8 -8 -8 -8
-9 -9 -9 -9 -9 -9 -9 -9 -8 -8 -8 -8 -8 -8 -8 -8 -8 -8 -7 -7 -7 -7 -7 -7 -7 -7 -7 -7 -7 -8 -8 -9 -8 -8 -8 -8 -8 -7 -7 -7 -7 -7 -7 -7 -7 -7 -7 -7 -7 -7 -7 -7 -7 -7 -7 -7 -8 -8 -8 -8 -8 -8 -8 -8 -8 -8 -8 -8 -8 -8 -8 -8 -8 -8
-9 -9 -9 -9 -9 -9 -9 -9 -8 -8 -8 -8 -8 -8 -8 -8 -8 -8 -8 -7 -7 -7 -7 -7 -7 -7 -7 -7 -7 -7 -8 -9 -9 -9 -9 -9 -9 -8 -8 -8 -8 -8 -8 -8 -8 -8 -8 -8 -8 -8 -8 -8 -8 -8 -8 -8 -8 -8 -8 -8 -8 -8 -9 -9 -9 -9 -9 -9 -9 -9 -9 -9 -8 -8
-9 -9 -9 -9 -9 -9 -9 -9 -9 -8 -8 -8 -8 -8 -8 -8 -8 -8 -8 -8 -8 -7 -7 -7 -7 -7 -8 -8 -8 -8 -8 -9 -9 -9 -9 -9 -9 -9 -9 -9 -9 -8 -8 -8 -8 -8 -8 -8 -8 -8 -8 -8 -8 -8 -8 -8 -8 -8 -8 -8 -9 -9 -9 -9 -9 -9 -9 -9 -9 -9 -9 -9 -9 -9
-9 -9 -9 -9 -9 -9 -9 -9 -9 -9 -9 -9 -8 -8 -8 -8 -8 -8 -8 -8 -8 -8 -8 -8 -8 -8 -8 -8 -8 -9 -9 -9 -9 -10 -10 -9 -9 -9 -9 -9 -9 -9 -9 -9 -9 -9 -8 -8 -8 -8 -8 -8 -8 -8 -8 -8 -9 -8 -8 -8 -8 -9 -9 -9 -9 -9 -9 -9 -9 -9 -9 -9 -9 -9
-9 -9 -9 -9 -9 -9 -9 -9 -9 -9 -9 -9 -9 -9 -9 -9 -9 -9 -9 -9 -9 -9 -8 -8 -8 -9 -9 -9 -9 -9 -10 -10 -10 -10 -9 -9 -9 -9 -9 -9 -9 -9 -9 -9 -9 -9 -9 -9 -9 -9 -9 -8 -8 -8 -8 -8 -8 -9 -9 -9 -9 -9 -9 -9 -9 -9 -9 -9 -9 -9 -10 -10 -10 -10
-10 -10 -10 -10 -10 -9 -9 -9 -9 -9 -9 -9 -9 -9 -9 -9 -9 -9 -9 -9 -9 -9 -9 -9 -9 -9 -9 -9 -9 -10 -10 -10 -10 -10 -9 -10 -10 -10 -9 -9 -9 -9 -9 -9 -9 -9 -9 -9 -9 -9 -9 -9 -9 -9 -9 -9 -9 -9 -9 -9 -9 -9 -9 -9 -9 -9 -9 -9 -9 -10 -10 -10 -10 -10
-10 -10 -10 -10 -10 -10 -10 -10 -9 -9 -9 -9 -9 -9 -9 -9 -9 -9 -9 -9 -9 -10 -10 -10 -10 -9 -9 -9 -10 -10 -10 -10 -10 -10 -10 -10 -10 -10 -10 -10 -10 -10 -10 -10 -10 -9 -9 -9 -9 -9 -9 -9 -9 -9 -9 -9 -9 -9 -9 -9 -9 -10 -10 -9 -9 -9 -9 -9 -10 -10 -10 -10 -10 -10
-10 -10 -10 -10 -10 -10 -10 -10 -10 -10 -9 -9 -9 -9 -9 -9 -9 -9 -9 -10 -10 -10 -10 -10 -10 -10 -10 -10 -10 -10 -10 -10 -10 -10 -10 -10 -10 -10 -10 -10 -10 -10 -10 -10 -10 -10 -10 -10 -10 -10 -10 -10 -10 -10 -10 -10 -10 -10 -9 -9 -9 -10 -10 -10 -10 -10 -10 -10 -10 -10 -11 -11 -11 -11
-11 -11 -10 -10 -10 -10 -10 -10 -10 -10 -10 -10 -9 -9 -10 -10 -10 -10 -10 -10 -10 -10 -10 -10 -10 -10 -10 -10 -10 -10 -10 -10 -10 -11 -10 -10 -10 -10 -10 -10 -10 -10 -10 -10 -10 -10 -10 -10 -10 -10 -10 -10 -10 -10 -10 -10 -10 -10 -10 -10 -10 -10 -10 -10 -11 -11 -11 -11 -11 -11 -11 -11 -12 -12
-11 -11 -11 -11 -11 -11 -11 -11 -11 -11 -10 -10 -10 -10 -10 -10 -10 -10 -10 -10 -10 -10 -11 -11 -11 -11 -11 -11 -11 -11 -10 -11 -11 -11 -11 -10 -10 -10 -10 -10 -10 -10 -10 -10 -11 -11 -11 -11 -11 -11 -11 -11 -11 -11 -11 -11 -11 -11 -11 -11 -10 -10 -10 -10 -11 -11 -12 -12 -12 -12 -12 -12 -12 -12
-12 -12 -12 -12 -12 -12 -11 -11 -11 -11 -11 -11 -11 -11 -11 -10 -10 -10 -11 -11 -11 -11 -11 -11 -12 -12 -12 -11 -11 -11 -11 -11 -11 -11 -11 -11 -11 -11 -11 -11 -11 -11 -11 -11 -11 -11 -11 -11 -11 -11 -11 -11 -11 -11 -11 -11 -12 -12 -12 -11 -11 -11 -11 -11 -12 -12 -12 -12 -12 -12 -12 -13 -13 -13
-13 -12 -12 -12 -12 -12 -12 -12 -12 -12 -12 -12 -12 -12 -12 -11 -11 -11 -11 -11 -11 -12 -12 -12 -12 -12 -12 -12 -12 -12 -12 -12 -11 -11 -11 -11 -11 -11 -11 -11 -11 -11 -11 -11 -11 -11 -11 -11 -11 -11 -11 -11 -11 -12 -12 -12 -12 -13 -13 -13 -13 -13 -13 -13 -13 -13 -13 -12 -12 -12 -13 -13 -13 -13
Height
5948 5949 5949 5949 5949 5949 5949 5949 5948 5948 5948 5947 5947 5947 5947 5946 5946 5945 5945 5944 5944 5944 5943 5943 5943 5942 5942 5941 5941 5940 5940 5940 5939 5938 5937 5935 5934 5933 5932 5931 5930 5929 5928 5927 5926 5925 5923 5922 5920 5919 5917 5916 5914 5913 5911 5910 5908 5907 5905 5904 5902 5901 5899 5898 5897 5895 5894 5893 5892 5891 5890 5889 5888 5887
5948 5948 5948 5948 5948 5948 5948 5948 5948 5947 5947 5947 5947 5947 5946 5946 5945 5945 5945 5944 5944 5943 5943 5943 5943 5942 5942 5941 5940 5940 5940 5939 5938 5937 5936 5935 5934 5933 5932 5931 5930 5929 5928 5927 5926 5924 5923 5922 5921 5919 5918 5916 5915 5913 5911 5910 5909 5908 5906 5905 5904 5902 5901 5899 5898 5897 5896 5894 5894 5893 5892 5891 5890 5889
5947 5947 5948 5948 5948 5948 5948 5947 5947 5947 5946 5946 5946 5946 5946 5945 5945 5945 5945 5944 5943 5943 5943 5942 5942 5942 5941 5941 5940 5940 5939 5939 5938 5937 5935 5934 5933 5932 5931 5930 5929 5928 5927 5926 5925 5924 5923 5922 5921 5919 5918 5917 5915 5914 5912 5911 5909 5908 5907 5906 5905 5903 5902 5901 5900 5898 5897 5896 5895 5894 5893 5892 5892 5891
5946 5946 5947 5947 5947 5947 5947 5947 5946 5946 5946 5946 5945 5945 5945 5944 5944 5944 5944 5944 5943 5943 5942 5942 5942 5941 5941 5940 5940 5939 5938 5938 5937 5936 5935 5934 5933 5932 5931 5930 5929 5928 5927 5926 5924 5923 5922 5921 5920 5919 5918 5917 5916 5914 5913 5911 5910 5908 5907 5906 5905 5904 5903 5902 5901 5900 5899 5898 5897 5896 5895 5894 5893 5893
5945 5946 5946 5946 5946 5946 5946 5946 5946 5945 5945 5945 5945 5944 5944 5944 5944 5944 5943 5943 5943 5943 5942 5942 5941 5941 5940 5939 5939 5938 5938 5937 5936 5935 5934 5933 5932 5931 5930 5929 5928 5927 5926 5925 5924 5923 5922 5921 5920 5918 5917 5916 5915 5914 5913 5912 5910 5909 5908 5907 5906 5905 5904 5903 5902 5901 5900 5900 5899 5897 5897 5895 5895 5894
5945 5945 5945 5945 5945 5945 5945 5945 5945 5945 5944 5944 5944 5943 5943 5943 5943 5943 5943 5942 5942 5942 5941 5941 5940 5940 5939 5938 5938 5937 5937 5936 5936 5935 5935 5933 5932 5931 5929 5929 5928 5927 5926 5925 5924 5923 5922 5920 5919 5918 5917 5916 5915 5914 5913 5912 5910 5909 5908 5907 5906 5905 5904 5903 5902 5901 5900 5900 5899 5898 5897 5896 5896 5895
5944 5944 5944 5944 5944 5944 5944 5944 5944 5944 5943 5943 5943 5942 5942 5942 5942 5942 5942 5941 5941 5941 5940 5940 5940 5939 5938 5937 5937 5936 5936 5935 5935 5935 5934 5933 5931 5930 5929 5928 5927 5926 5925 5924 5923 5922 5921 5920 5918 5917 5916 5915 5914 5913 5912 5911 5910 5909 5908 5907 5906 5906 5905 5904 5902 5901 5901 5900 5899 5898 5897 5896 5896 5895
5943 5943 5943 5943 5943 5943 5943 5943 5943 5942 5942 5942 5941 5941 5941 5941 5941 5941 5940 5940 5940 5940 5939 5939 5939 5938 5937 5936 5935 5935 5934 5934 5934 5933 5933 5932 5931 5929 5928 5927 5926 5925 5924 5923 5923 5921 5920 5919 5917 5916 5915 5914 5913 5912 5911 5910 5909 5909 5908 5907 5906 5905 5905 5904 5902 5901 5901 5900 5898 5897 5897 5896 5896 5895
5942 5942 5942 5942 5941 5942 5942 5941 5941 5941 5941 5941 5940 5940 5940 5940 5940 5940 5939 5939 5939 5939 5939 5938 5938 5937 5936 5935 5934 5933 5933 5933 5932 5932 5931 5930 5929 5928 5927 5925 5924 5923 5923 5922 5921 5920 5919 5918 5916 5915 5914 5913 5912 5911 5910 5909 5908 5907 5907 5906 5905 5905 5904 5903 5902 5901 5900 5900 5898 5898 5897 5897 5896 5895
5940 5940 5940 5940 5940 5940 5940 5940 5940 5940 5940 5940 5939 5939 5939 5939 5939 5938 5938 5938 5938 5938 5938 5937 5937 5936 5936 5935 5934 5932 5931 5931 5931 5930 5930 5929 5928 5927 5926 5924 5923 5922 5921 5921 5920 5919 5918 5917 5915 5914 5913 5912 5911 5910 5909 5909 5907 5906 5905 5904 5904 5904 5903 5903 5902 5901 5900 5899 5898 5898 5897 5897 5896 5895
5938 5939 5939 5939 5939 5939 5939 5939 5939 5939 5939 5939 5938 5938 5938 5938 5937 5937 5937 5937 5937 5937 5936 5936 5936 5935 5935 5934 5933 5932 5930 5929 5929 5928 5928 5927 5926 5926 5924 5923 5922 5921 5920 5919 5919 5918 5917 5916 5915 5913 5912 5910 5910 5909 5908 5907 5906 5905 5904 5903 5903 5902 5902 5902 5901 5900 5899 5898 5898 5897 5897 5896 5896 5895
5936 5937 5937 5937 5937 5937 5937 5937 5937 5937 5937 5937 5937 5937 5937 5937 5936 5936 5936 5937 5936 5936 5935 5934 5934 5934 5933 5933 5932 5931 5930 5928 5927 5927 5926 5925 5924 5923 5923 5921 5920 5919 5919 5918 5917 5917 5916 5915 5914 5913 5911 5909 5908 5908 5907 5906 5905 5904 5903 5902 5901 5901 5901 5900 5900 5899 5898 5897 5897 5896 5896 5895 5895 5894
5934 5934 5935 5935 5935 5935 5935 5935 5935 5935 5935 5935 5935 5934 5935 5934 5934 5934 5935 5935 5935 5934 5933 5932 5931 5931 5931 5931 5931 5930 5929 5927 5926 5925 5924 5923 5922 5921 5921 5920 5918 5917 5917 5917 5916 5915 5915 5914 5913 5912 5910 5909 5908 5907 5906 5905 5904 5902 5901 5900 5899 5899 5898 5898 5898 5897 5896 5895 5895 5895 5895 5894 5894 5893
5932 5932 5932 5933 5933 5933 5933 5934 5934 5934 5933 5932 5932 5931 5931 5931 5931 5932 5932 5932 5932 5931 5931 5930 5929 5928 5928 5928 5929 5928 5927 5925 5924 5923 5922 5921 5920 5920 5919 5918 5916 5915 5915 5915 5914 5913 5913 5912 5912 5911 5909 5908 5907 5906 5905 5904 5903 5902 5900 5899 5897 5897 5896 5896 5896 5895 5894 5893 5893 5894 5893 5893 5892 5892
5929 5930 5930 5930 5930 5931 5931 5931 5931 5931 5930 5930 5929 5929 5929 5929 5929 5930 5930 5929 5929 5929 5928 5927 5927 5926 5925 5926 5927 5926 5924 5923 5922 5921 5920 5919 5918 5917 5916 5916 5915 5913 5912 5912 5912 5911 5911 5910 5910 5909 5907 5905 5905 5905 5904 5903 5902 5901 5900 5898 5897 5896 5895 5894 5893 5893 5892 5891 5891 5891 5891 5891 5890 5890
5926 5927 5927 5927 5927 5928 5928 5928 5928 5927 5927 5927 5927 5927 5928 5928 5928 5927 5927 5927 5927 5926 5925 5925 5924 5924 5923 5924 5924 5922 5920 5920 5919 5918 5918 5917 5916 5915 5914 5913 5912 5911 5910 5909 5909 5909 5909 5908 5907 5906 5904 5903 5902 5902 5902 5901 5901 5900 5899 5898 5897 5895 5894 5893 5892 5891 5890 5889 5889 5888 5888 5888 5888 5888
5923 5924 5924 5924 5924 5924 5925 5925 5925 5924 5924 5924 5924 5925 5925 5925 5924 5924 5924 5924 5924 5923 5923 5923 5922 5921 5921 5921 5921 5919 5917 5916 5915 5915 5914 5914 5913 5912 5912 5911 5909 5908 5908 5907 5907 5907 5906 5905 5904 5903 5902 5901 5900 5900 5899 5899 5898 5898 5897 5896 5896 5894 5893 5892 5890 5889 5888 5888 5887 5886 5886 5886 5885 5885
5920 5920 5921 5921 5921 5921 5922 5922 5921 5920 5920 5921 5921 5921 5921 5920 5920 5920 5920 5920 5919 5919 5920 5920 5919 5918 5918 5917 5917 5916 5914 5913 5912 5912 5911 5911 5910 5909 5909 5908 5906 5905 5905 5904 5903 5904 5903 5902 5901 5901 5900 5899 5898 5897 5897 5896 5896 5895 5895 5894 5894 5893 5892 5891 5889 5888 5887 5886 5885 5885 5884 5884 5883 5883
5916 5916 5917 5917 5917 5917 5918 5918 5917 5917 5917 5917 5917 5917 5916 5916 5917 5917 5917 5917 5916 5915 5915 5915 5915 5915 5915 5915 5914 5913 5911 5910 5909 5908 5908 5907 5906 5905 5905 5905 5904 5902 5901 5900 5900 5900 5900 5899 5898 5897 5897 5896 5896 5895 5894 5894 5893 5893 5892 5892 5891 5891 5890 5889 5888 5887 5886 5885 5883 5883 5882 5882 5881 5881
5911 5912 5912 5913 5913 5913 5914 5914 5913 5912 5912 5913 5913 5913 5913 5913 5914 5915 5914 5914 5913 5912 5912 5912 5912 5912 5912 5911 5910 5909 5908 5907 5906 5905 5904 5904 5903 5902 5901 5901 5901 5900 5898 5896 5896 5896 5896 5895 5895 5894 5893 5893 5893 5892 5891 5891 5891 5890 5890 5889 5888 5888 5887 5886 5886 5885 5884 5883 5881 5881 5880 5879 5879 5878
5906 5907 5908 5909 5909 5909 5909 5909 5909 5908 5908 5909 5910 5909 5909 5909 5910 5911 5910 5909 5908 5908 5908 5908 5907 5907 5907 5906 5906 5905 5904 5903 5902 5901 5900 5900 5899 5898 5897 5896 5896 5896 5896 5893 5892 5892 5892 5891 5891 5890 5889 5889 5889 5889 5888 5888 5888 5887 5887 5886 5885 5884 5884 5883 5882 5882 5881 5880 5879 5878 5877 5877 5876 5876
5901 5903 5904 5905 5905 5905 5904 5904 5904 5903 5904 5904 5905 5905 5905 5906 5906 5907 5905 5904 5904 5903 5903 5903 5902 5902 5902 5902 5901 5901 5899 5898 5898 5897 5896 5896 5895 5895 5894 5892 5890 5891 5891 5890 5888 5889 5889 5888 5887 5887 5886 5886 5886 5885 5884 5884 5884 5884 5883 5883 5882 5881 5880 5880 5879 5878 5878 5877 5876 5875 5875 5874 5874 5873
5896 5897 5899 5900 5901 5900 5899 5899 5899 5899 5899 5900 5900 5901 5901 5902 5902 5901 5901 5901 5901 5900 5898 5898 5899 5898 5897 5897 5897 5896 5895 5894 5894 5893 5892 5892 5891 5890 5890 5888 5886 5885 5886 5885 5884 5885 5885 5885 5884 5883 5883 5882 5883 5882 5880 5880 5880 5879 5879 5879 5878 5878 5877 5876 5876 5875 5874 5873 5873 5872 5872 5871 5871 5870
5891 5891 5893 5895 5897 5896 5894 5894 5894 5894 5895 5895 5895 5896 5897 5898 5897 5896 5897 5897 5896 5895 5895 5894 5894 5893 5892 5892 5892 5891 5890 5890 5889 5888 5887 5887 5887 5886 5885 5884 5882 5880 5880 5880 5880 5880 5880 5880 5880 5880 5879 5878 5878 5878 5877 5876 5875 5875 5875 5875 5874 5873 5873 5873 5873 5872 5871 5870 5869 5869 5868 5868 5868 5867
5886 5886 5887 5889 5892 5891 5889 5889 5889 5889 5890 5889 5890 5891 5892 5892 5891 5891 5891 5891 5891 5891 5890 5889 5889 5888 5887 5887 5886 5885 5884 5884 5884 5883 5883 5883 5882 5882 5881 5880 5878 5876 5876 5876 5875 5875 5876 5876 5875 5875 5875 5874 5874 5874 5873 5872 5872 5871 5870 5870 5869 5868 5869 5869 5869 5868 5867 5866 5866 5865 5865 5864 5864 5864
5881 5882 5882 5883 5885 5885 5884 5884 5884 5884 5884 5885 5886 5887 5886 5885 5886 5885 5884 5885 5885 5885 5885 5884 5883 5883 5882 5882 5880 5878 5877 5878 5878 5878 5878 5878 5878 5877 5877 5876 5875 5873 5872 5872 5871 5871 5871 5871 5871 5870 5870 5870 5869 5869 5868 5868 5868 5867 5866 5865 5864 5864 5864 5864 5864 5864 5864 5863 5863 5862 5861 5861 5860 5860
5876 5876 5877 5877 5878 5879 5879 5879 5879 5879 5879 5880 5881 5881 5880 5879 5880 5879 5878 5879 5879 5879 5878 5878 5877 5877 5877 5876 5874 5872 5872 5872 5873 5873 5873 5873 5873 5873 5872 5872 5871 5870 5869 5868 5868 5868 5867 5867 5867 5866 5865 5865 5864 5864 5863 5863 5863 5863 5862 5861 5860 5860 5859 5860 5859 5859 5859 5859 5859 5858 5858 5857 5856 5856
5871 5871 5871 5872 5873 5873 5874 5875 5875 5874 5874 5874 5875 5875 5874 5873 5874 5873 5873 5873 5873 5872 5872 5872 5871 5871 5871 5870 5867 5866 5867 5868 5867 5868 5868 5868 5868 5868 5868 5867 5867 5866 5866 5865 5864 5864 5863 5863 5863 5862 5861 5860 5860 5859 5859 5859 5859 5859 5858 5858 5857 5856 5855 5855 5855 5855 5854 5854 5854 5854 5853 5853 5852 5851
5865 5866 5866 5866 5867 5867 5868 5869 5869 5869 5869 5869 5869 5870 5869 5868 5868 5869 5869 5868 5868 5867 5866 5866 5865 5865 5865 5864 5860 5860 5862 5862 5862 5862 5863 5863 5863 5863 5863 5863 5863 5862 5862 5861 5861 5860 5860 5859 5859 5858 5857 5857 5856 5856 5855 5855 5855 5854 5854 5854 5853 5852 5851 5850 5850 5850 5849 5849 5849 5848 5848 5847 5847 5846
5860 5859 5860 5861 5861 5861 5862 5862 5863 5863 5863 5863 5864 5864 5864 5863 5863 5864 5864 5864 5864 5863 5862 5861 5861 5860 5859 5858 5856 5855 5856 5856 5856 5857 5857 5858 5858 5858 5858 5858 5858 5858 5858 5857 5857 5857 5856 5856 5855 5854 5853 5853 5852 5852 5851 5850 5850 5849 5849 5849 5848 5848 5847 5846 5845 5845 5844 5844 5844 5843 5842 5842 5841 5840
5853 5853 5853 5855 5855 5855 5856 5857 5857 5857 5857 5858 5858 5858 5858 5859 5859 5860 5859 5859 5859 5859 5858 5857 5856 5854 5853 5852 5851 5850 5850 5850 5851 5852 5852 5853 5853 5853 5853 5853 5854 5854 5854 5853 5853 5852 5852 5852 5851 5850 5849 5849 5848 5847 5846 5846 5845 5845 5844 5843 5843 5842 5842 5841 5840 5840 5838 5838 5838 5837 5836 5836 5835 5835
5846 5847 5847 5848 5849 5849 5850 5851 5851 5851 5851 5852 5853 5853 5853 5854 5854 5855 5855 5854 5855 5855 5853 5851 5851 5849 5847 5846 5846 5846 5846 5846 5846 5847 5847 5848 5848 5849 5848 5849 5849 5849 5848 5848 5848 5847 5847 5847 5847 5846 5845 5844 5844 5843 5842 5841 5841 5840 5839 5838 5837 5837 5836 5836 5835 5834 5833 5832 5832 5831 5831 5830 5829 5829
5840 5841 5841 5842 5843 5844 5845 5845 5845 5846 5846 5846 5847 5847 5848 5848 5849 5850 5850 5851 5851 5851 5848 5845 5845 5843 5841 5841 5841 5841 5842 5843 5843 5843 5843 5843 5844 5844 5844 5844 5844 5844 5843 5843 5842 5842 5842 5841 5841 5841 5840 5839 5838 5838 5837 5836 5836 5835 5834 5833 5832 5831 5831 5830 5830 5829 5828 5827 5826 5825 5825 5824 5823 5822
5835 5836 5836 5837 5838 5839 5839 5840 5840 5841 5841 5841 5841 5842 5842 5843 5843 5844 5845 5846 5845 5843 5841 5840 5839 5837 5836 5836 5836 5836 5837 5838 5839 5839 5839 5839 5838 5838 5838 5838 5838 5838 5838 5837 5837 5836 5836 5835 5835 5835 5835 5834 5833 5832 5832 5831 5830 5829 5828 5828 5827 5826 5825 5825 5824 5823 5822 5821 5820 5819 5818 5817 5817 5816
5830 5830 5831 5832 5832 5833 5834 5834 5835 5835 5835 5836 5836 5836 5837 5837 5838 5838 5840 5841 5840 5837 5835 5834 5834 5832 5831 5831 5831 5831 5831 5832 5833 5834 5834 5833 5832 5832 5832 5832 5832 5832 5832 5831 5831 5830 5829 5829 5828 5828 5828 5828 5827 5826 5826 5825 5824 5824 5823 5821 5821 5820 5819 5818 5817 5816 5815 5814 5813 5812 5811 5810 5809 5809
5825 5825 5825 5826 5827 5827 5828 5828 5828 5829 5829 5830 5831 5831 5831 5831 5832 5832 5833 5835 5836 5833 5830 5829 5828 5827 5825 5825 5825 5826 5826 5826 5827 5827 5827 5826 5826 5826 5826 5826 5826 5826 5826 5825 5824 5824 5823 5822 5822 5821 5821 5821 5821 5820 5821 5819 5817 5817 5817 5815 5814 5813 5812 5811 5810 5809 5808 5807 5806 5804 5803 5802 5801 5800
5819 5819 5820 5820 5821 5821 5821 5822 5822 5822 5823 5823 5824 5825 5825 5825 5826 5826 5826 5828 5829 5827 5825 5824 5823 5821 5820 5820 5820 5820 5820 5820 5820 5820 5820 5820 5819 5819 5820 5820 5820 5819 5819 5818 5818 5817 5816 5816 5816 5815 5814 5814 5813 5813 5814 5814 5811 5810 5809 5808 5807 5806 5805 5803 5802 5801 5800 5799 5798 5796 5795 5794 5792 5791
5813 5813 5814 5814 5814 5814 5815 5815 5815 5816 5816 5817 5817 5818 5818 5819 5819 5819 5819 5820 5821 5821 5820 5819 5818 5816 5815 5815 5815 5814 5814 5814 5813 5813 5813 5813 5813 5812 5812 5813 5812 5812 5812 5811 5811 5810 5810 5809 5809 5808 5807 5807 5806 5805 5805 5806 5805 5803 5802 5800 5799 5799 5797 5795 5794 5793 5791 5790 5789 5788 5786 5785 5783 5782
5806 5807 5807 5807 5808 5808 5808 5808 5808 5809 5809 5809 5809 5810 5811 5812 5812 5812 5812 5813 5813 5813 5813 5813 5812 5810 5809 5808 5807 5807 5807 5807 5807 5806 5806 5806 5806 5805 5805 5805 5805 5804 5804 5804 5803 5803 5802 5802 5801 5800 5799 5799 5798 5797 5796 5796 5795 5796 5795 5793 5790 5789 5789 5787 5785 5784 5782 5781 5780 5778 5777 5775 5774 5772
5800 5800 5800 5801 5801 5801 5801 5801 5801 5801 5801 5802 5802 5802 5802 5803 5804 5804 5805 5805 5804 5804 5805 5804 5804 5802 5801 5801 5801 5801 5801 5801 5801 5800 5800 5799 5798 5798 5797 5797 5797 5796 5796 5796 5795 5795 5795 5794 5793 5792 5791 5790 5789 5788 5787 5787 5785 5785 5786 5786 5783 5780 5779 5778 5776 5775 5773 5772 5770 5768 5767 5765 5763 5762
5792 5793 5793 5793 5793 5794 5794 5794 5794 5794 5794 5794 5794 5794 5794 5794 5795 5795 5796 5796 5796 5795 5795 5795 5794 5794 5794 5794 5794 5794 5794 5793 5793 5792 5792 5791 5790 5790 5789 5789 5789 5788 5788 5787 5787 5786 5787 5786 5785 5784 5783 5782 5781 5779 5778 5777 5776 5775 5775 5776 5775 5773 5770 5768 5766 5765 5764 5762 5761 5759 5757 5755 5753 5751
5784 5784 5785 5785 5785 5785 5786 5786 5786 5786 5786 5786 5786 5786 5786 5786 5787 5787 5787 5787 5787 5787 5786 5786 5785 5785 5786 5786 5786 5786 5786 5785 5784 5784 5784 5783 5782 5781 5781 5780 5779 5779 5778 5778 5777 5777 5777 5777 5776 5775 5774 5773 5772 5770 5768 5767 5766 5765 5764 5764 5765 5764 5762 5759 5757 5755 5753 5752 5750 5749 5747 5745 5743 5741
5775 5775 5776 5777 5777 5777 5777 5777 5777 5778 5778 5778 5778 5778 5778 5778 5778 5779 5778 5778 5778 5779 5778 5778 5777 5778 5777 5777 5777 5778 5778 5777 5776 5776 5776 5775 5774 5773 5773 5772 5771 5770 5769 5769 5768 5767 5767 5767 5766 5766 5764 5763 5762 5761 5759 5757 5755 5754 5753 5752 5752 5752 5751 5749 5748 5746 5744 5741 5740 5739 5737 5735 5733 5731
5767 5767 5767 5767 5768 5768 5768 5769 5769 5769 5769 5769 5769 5770 5770 5770 5770 5770 5770 5770 5770 5770 5770 5770 5769 5769 5769 5769 5768 5768 5768 5768 5767 5767 5766 5766 5765 5764 5763 5763 5763 5762 5761 5760 5758 5757 5757 5756 5755 5754 5753 5751 5750 5750 5748 5746 5744 5743 5742 5741 5740 5739 5738 5736 5735 5735 5735 5733 5731 5728 5727 5725 5723 5720
5758 5759 5759 5759 5759 5759 5759 5760 5760 5760 5760 5761 5761 5761 5761 5761 5761 5761 5761 5761 5761 5761 5761 5761 5760 5760 5760 5760 5759 5759 5759 5758 5758 5757 5757 5756 5756 5755 5754 5754 5753 5752 5751 5750 5749 5747 5746 5745 5744 5743 5742 5740 5739 5738 5737 5736 5734 5733 5731 5730 5729 5728 5727 5725 5723 5722 5722 5722 5722 5720 5717 5715 5712 5710
Wind_Speed
4 4 4 4 4 4 5 6 7 7 7 7 6 5 5 4 4 4 4 5 6 5 4 3 4 6 6 5 6 5 5 6 7 9 10 12 13 14 14 13 13 13 13 13 13 13 13 14 14 14 14 15 15 15 16 16 15 14 13 13 12 13 13 13 13 13 14 14 14 14 15 15 16 15
5 5 5 5 6 6 7 8 8 8 8 7 6 6 5 5 5 4 4 5 5 5 4 2 2 4 5 5 6 6 6 6 7 8 10 12 13 14 14 13 13 13 13 13 14 14 14 14 14 14 14 15 15 15 15 15 15 15 14 13 13 12 12 12 12 12 12 12 13 13 13 14 14 14
7 7 7 7 7 8 8 8 8 8 7 7 6 6 5 5 5 4 4 5 6 4 4 3 2 3 4 5 6 6 6 7 7 8 10 11 12 13 13 13 13 13 13 14 14 15 15 15 15 15 14 15 15 15 15 16 16 16 15 14 13 12 12 12 12 12 11 11 11 11 12 12 12 13
9 9 9 8 8 8 8 8 8 7 7 6 6 6 6 6 6 5 5 6 6 5 5 5 4 5 6 6 6 6 7 7 8 8 10 11 12 13 13 13 13 13 13 14 15 15 16 15 15 15 15 15 15 15 15 15 16 16 16 15 14 13 13 12 12 11 11 11 11 10 10 11 11 11
10 10 9 9 8 8 7 7 7 7 7 6 6 6 7 7 6 6 6 7 7 6 6 6 6 7 8 8 8 8 7 8 8 9 10 11 12 13 13 12 12 12 12 13 14 15 15 15 15 15 15 15 14 14 14 15 15 15 16 15 15 14 13 13 12 11 11 11 10 10 10 10 10 9
11 10 10 9 9 8 8 8 8 7 7 6 6 6 7 7 7 7 7 7 7 7 6 7 7 8 9 10 10 10 9 9 9 9 9 10 12 13 13 13 13 13 13 12 13 13 14 14 15 15 16 16 15 14 14 14 14 14 15 15 15 14 14 13 12 11 11 10 10 10 9 9 8 8
11 11 10 10 9 9 8 8 8 7 7 7 6 6 7 7 6 7 7 7 8 8 7 8 8 9 10 11 12 12 11 11 11 11 11 11 12 13 14 14 14 14 13 13 12 12 13 13 14 15 15 15 15 15 15 14 14 13 13 14 14 14 14 13 12 11 10 10 10 9 8 7 6 6
13 12 12 11 10 9 9 8 8 7 7 7 7 7 7 7 7 7 8 8 8 9 9 9 10 11 11 12 13 13 13 13 13 13 13 13 13 14 15 15 15 15 14 13 12 12 12 12 13 13 14 14 14 14 15 15 14 13 13 13 13 13 13 13 12 11 10 10 10 9 8 7 6 4
14 13 13 13 12 11 10 9 9 9 8 9 8 8 8 8 8 8 8 9 9 10 10 11 11 12 12 13 14 14 15 15 15 15 15 15 15 15 15 16 15 15 15 15 13 11 11 11 12 12 12 12 13 13 14 15 15 14 14 13 13 12 12 12 11 11 11 10 9 9 8 8 7 5
15 14 14 14 13 12 12 11 11 10 10 10 10 9 9 9 8 9 9 9 10 10 11 11 12 13 13 13 14 15 16 17 16 16 16 16 15 15 15 16 16 16 15 15 14 13 11 11 11 12 12 11 12 12 13 13 14 15 14 14 13 12 12 11 10 10 10 9 9 9 8 8 8 7
16 16 16 16 15 15 14 13 13 12 12 12 11 11 11 11 10 10 10 10 11 11 11 12 13 14 15 15 15 16 17 17 18 18 18 17 16 16 16 16 17 16 15 15 15 14 13 11 11 11 11 11 11 11 12 12 12 13 13 14 14 13 12 11 10 10 10 9 9 9 9 9 9 8
17 17 17 17 17 16 16 15 15 15 14 13 13 12 13 13 12 12 11 12 12 13 13 12 13 15 17 17 18 18 18 18 18 18 19 19 18 18 17 17 18 17 16 15 15 15 14 13 12 12 13 13 12 12 12 12 11 11 12 12 13 12 12 11 10 10 10 10 9 9 9 9 9 9
18 18 18 18 18 17 17 17 17 16 16 15 15 15 15 15 14 13 14 14 14 14 15 15 15 15 16 18 19 20 20 20 20 20 20 20 20 20 19 19 19 19 17 16 16 16 15 14 14 13 14 14 14 13 13 12 12 11 11 11 11 11 11 10 9 9 10 10 10 10 9 9 9 10
20 20 20 20 19 19 19 19 18 18 18 18 18 18 18 18 17 16 16 16 16 16 17 19 19 17 16 17 19 22 23 22 22 22 22 23 23 23 22 20 20 21 20 18 17 17 16 15 14 14 15 15 15 14 14 14 13 13 12 11 11 11 11 11 10 9 9 9 10 10 10 10 9 9
22 22 22 22 21 21 21 21 20 21 22 22 21 20 19 18 18 18 18 18 18 17 18 21 21 19 17 17 20 24 24 24 24 23 23 24 25 25 25 24 23 23 22 21 19 19 19 17 15 14 15 16 16 16 16 15 15 15 14 14 13 12 11 11 11 10 10 10 10 10 10 11 11 10
25 25 25 25 24 24 23 23 23 24 25 24 23 22 20 19 18 19 19 19 18 18 19 21 22 20 18 17 20 25 26 24 24 25 25 25 26 26 27 26 25 25 25 24 21 19 20 20 17 15 16 17 16 16 16 17 17 16 17 16 16 15 14 13 12 12 12 12 11 11 11 11 11 11
28 27 27 27 27 27 26 25 26 27 26 26 25 24 23 22 21 21 20 19 19 19 20 21 22 22 21 19 23 27 27 25 25 25 25 26 26 27 27 27 28 28 27 27 25 22 21 22 20 17 17 17 17 17 17 17 18 18 18 19 18 17 16 15 14 13 13 13 13 13 13 12 12 12
28 29 29 29 28 29 28 28 29 29 28 28 27 27 26 26 25 24 23 22 22 22 21 21 22 24 24 24 26 29 28 27 27 27 27 27 27 27 28 27 29 30 30 30 28 25 24 24 22 19 18 17 18 18 17 18 18 19 19 20 19 19 18 17 16 16 15 15 15 15 15 14 14 13
31 30 30 30 30 29 30 31 31 31 31 30 30 29 29 28 27 26 25 25 25 25 24 24 24 25 26 27 28 29 29 29 29 30 30 30 29 29 28 27 28 30 31 32 31 29 28 27 25 23 20 19 19 19 19 19 19 20 20 20 20 20 20 19 19 18 18 17 17 16 16 16 16 15
32 32 33 33 31 30 32 33 33 33 34 33 32 32 31 29 27 26 26 27 28 28 27 27 27 27 28 28 28 28 29 30 30 31 31 31 31 31 31 30 29 30 31 32 33 33 32 31 28 27 25 23 21 22 22 21 21 21 21 22 22 22 22 22 21 20 20 19 19 18 17 17 17 17
31 33 35 34 33 34 35 34 34 35 35 34 33 33 33 32 30 28 28 29 30 30 29 29 30 29 30 30 30 30 30 31 31 32 32 31 31 32 33 34 35 33 33 35 36 35 34 34 32 31 29 27 25 25 25 24 24 23 23 23 23 23 23 23 23 23 22 21 20 19 18 18 18 18
32 33 35 35 35 37 37 36 36 36 36 35 35 35 35 34 32 32 32 32 31 31 31 31 32 33 33 33 33 33 34 35 34 34 33 32 31 31 32 35 38 37 36 37 37 35 34 34 34 33 32 30 28 28 27 26 25 25 24 24 24 24 24 24 24 24 23 22 21 20 19 19 19 19
32 32 34 36 38 38 38 37 36 37 37 36 35 35 35 35 34 35 34 33 33 34 34 33 33 34 35 35 36 37 37 37 37 37 36 33 31 31 32 34 36 36 35 36 36 35 33 33 34 34 34 32 30 28 28 27 26 26 26 26 26 26 25 24 24 24 23 23 22 21 20 20 21 21
33 32 32 34 36 37 37 37 36 36 36 36 36 35 34 33 35 36 35 35 36 37 37 37 35 35 37 38 38 39 39 38 38 39 38 35 31 31 31 32 33 33 32 32 33 32 31 32 33 33 33 32 30 28 28 28 28 28 28 27 26 26 24 23 23 22 22 22 21 21 21 21 21 21
34 34 33 34 35 37 37 37 37 36 36 36 35 35 34 34 36 37 38 38 39 40 40 40 39 38 38 37 36 38 40 41 40 40 39 36 32 31 30 30 30 30 29 28 29 30 30 30 31 31 30 30 29 28 28 27 27 28 28 26 26 26 24 22 22 21 20 20 20 21 21 21 21 21
35 35 36 37 37 37 37 38 38 37 37 37 36 35 37 37 38 40 42 41 41 42 42 42 42 42 41 39 38 39 40 40 40 39 37 35 33 32 30 29 28 27 26 26 28 28 28 29 29 29 29 29 29 29 28 27 26 27 27 26 26 26 26 24 23 22 21 20 20 21 21 22 22 22
37 36 37 38 38 38 38 38 38 39 39 39 38 38 40 41 41 44 45 44 44 44 44 45 44 42 41 42 45 45 42 38 36 36 35 35 35 33 31 29 28 26 25 25 26 26 27 28 28 29 30 30 30 30 29 28 27 27 27 27 27 28 27 27 26 25 24 23 23 22 23 23 24 24
39 38 39 40 41 40 40 40 40 42 42 42 41 42 42 44 44 44 44 43 43 43 44 45 44 41 40 42 45 44 41 37 35 34 34 35 35 34 31 30 29 27 26 26 26 26 27 28 29 30 30 31 31 31 31 30 29 29 29 28 28 29 29 29 28 28 28 27 26 26 26 26 27 27
42 42 43 44 44 44 44 44 44 44 45 45 44 44 43 43 42 40 38 36 36 38 39 40 40 40 39 39 39 39 38 37 36 34 34 35 34 33 32 31 31 30 29 28 28 28 28 29 30 31 32 32 33 33 32 32 31 31 31 31 30 30 31 31 31 31 31 30 30 30 30 30 30 30
45 46 47 45 44 44 44 45 45 45 45 46 45 44 43 41 38 36 34 33 34 36 38 38 39 41 40 38 40 42 41 39 36 34 33 32 31 31 31 31 30 30 30 29 29 29 29 30 31 32 33 33 34 34 34 34 34 34 34 34 33 32 32 33 33 34 35 34 33 33 34 34 34 34
49 50 48 44 40 39 39 39 40 41 42 42 42 41 39 38 36 35 34 34 33 34 37 39 41 42 41 40 39 38 36 34 31 29 28 28 28 29 29 29 29 30 31 30 30 30 31 32 32 34 35 35 35 36 37 37 37 37 37 37 36 36 35 36 36 36 37 38 37 37 37 37 37 37
43 45 44 40 37 36 36 36 35 36 37 37 37 36 36 36 35 34 34 35 33 32 35 39 41 42 44 40 32 26 23 23 24 25 25 26 26 28 29 30 31 33 33 33 33 33 34 35 35 36 37 37 38 38 39 38 38 38 38 38 38 38 38 38 38 39 40 40 40 40 41 41 41 41
33 35 35 34 34 34 35 35 35 34 35 35 36 35 35 36 35 34 34 34 33 32 35 39 40 41 41 36 28 22 21 22 23 25 26 28 30 33 35 36 35 35 35 34 35 36 36 37 37 37 38 39 39 39 39 39 39 40 40 40 40 40 40 41 41 42 42 43 44 44 45 45 45 46
31 32 33 33 34 34 35 36 36 35 35 36 37 37 37 37 37 36 35 34 35 35 37 40 40 39 36 32 31 31 30 27 27 29 30 33 35 38 39 38 36 35 35 35 36 37 38 38 39 39 39 40 40 41 41 42 42 42 42 42 42 43 43 43 44 45 45 46 47 48 49 49 49 50
33 34 34 35 35 36 37 38 38 38 38 38 38 39 39 39 39 38 35 32 33 35 38 40 41 41 42 43 44 43 41 37 35 34 34 35 36 37 38 38 36 36 36 37 37 39 40 41 41 41 41 42 42 43 43 44 45 45 45 45 45 45 46 46 47 48 48 49 50 51 52 53 54 54
37 37 37 37 38 38 39 40 40 40 40 40 40 40 41 41 40 39 36 34 35 39 42 43 45 46 48 49 49 48 47 43 39 36 35 36 37 38 39 38 38 38 38 39 40 41 42 43 43 44 45 45 46 46 46 46 48 49 48 48 48 48 48 49 50 50 51 51 53 54 55 56 57 57
40 40 40 40 40 41 41 42 42 42 42 42 42 42 43 43 42 42 40 38 38 41 44 46 48 49 49 49 49 49 46 42 39 38 38 39 40 42 42 42 41 41 41 42 43 44 45 45 46 47 48 48 49 50 49 49 51 52 52 52 52 51 51 51 52 53 53 54 55 56 58 59 60 61
42 43 43 43 44 44 44 45 45 45 46 46 46 45 45 45 45 45 44 42 42 43 45 46 49 51 52 52 50 47 44 42 41 42 42 43 44 45 44 44 44 44 44 45 46 46 47 47 48 49 50 51 52 53 53 53 53 54 54 54 55 54 54 54 55 55 56 57 58 59 61 62 63 64
44 45 45 46 46 47 47 48 48 48 49 49 49 49 48 48 48 47 47 47 47 47 47 48 49 51 51 50 48 47 47 47 46 46 46 46 46 47 47 47 48 48 49 49 49 49 49 50 51 52 53 54 56 57 57 58 58 57 57 57 57 58 57 58 58 59 60 60 61 63 64 65 66 67
47 47 48 48 49 49 50 51 51 52 52 52 52 52 52 51 51 50 50 50 51 51 50 51 52 53 54 53 53 52 51 50 49 49 49 49 50 51 53 53 53 53 52 51 51 51 51 52 54 55 57 58 60 61 61 61 62 62 61 60 60 61 61 61 62 62 63 64 64 66 67 68 68 69
51 51 51 51 51 52 52 53 53 54 54 55 55 55 55 55 54 54 53 53 53 54 55 55 56 57 58 58 57 56 54 53 53 54 54 55 55 56 57 58 58 58 57 55 54 55 56 57 58 59 60 61 62 64 65 65 65 65 65 65 65 65 65 65 66 66 66 66 67 68 69 69 70 71
54 54 54 54 55 55 55 55 56 56 56 56 57 57 57 57 57 56 56 55 55 56 56 57 58 58 57 56 56 55 55 55 56 57 58 58 58 58 59 62 63 63 61 59 59 61 63 62 62 63 64 65 66 67 68 68 68 68 68 69 69 70 69 69 69 69 69 69 69 69 70 71 72 72
56 56 56 56 56 57 57 57 57 58 58 58 58 59 59 59 58 57 57 57 57 57 57 57 57 56 55 55 57 58 58 58 59 59 59 60 61 61 62 63 65 66 65 65 67 69 69 68 67 68 68 69 70 70 71 71 71 70 71 72 73 74 75 75 75 74 72 71 71 71 71 72 73 74
57 57 58 58 57 57 58 58 58 58 58 58 58 59 60 60 60 60 59 58 58 57 56 56 55 55 54 55 57 58 58 59 59 60 60 62 63 63 63 64 65 67 69 70 72 73 73 73 74 74 74 75 76 75 74 74 73 73 74 75 75 76 77 78 79 78 76 74 73 73 73 74 75 76
55 56 57 58 58 58 58 58 58 58 58 57 57 58 58 59 59 60 60 59 59 58 57 56 56 57 57 58 59 60 60 60 60 60 61 61 61 61 62 63 65 67 69 71 72 74 75 75 76 77 79 80 80 79 77 76 75 75 75 76 77 77 77 78 78 78 78 76 75 75 76 76 77 77
Wind_Direction
210 214 212 210 214 229 251 265 273 276 279 283 285 288 293 298 303 309 315 314 313 325 340 358 351 335 329 332 332 334 339 346 351 351 353 355 356 357 360 3 5 6 4 2 2 4 7 9 9 7 6 8 11 10 8 11 17 23 23 19 16 14 15 18 22 28 34 38 40 45 50 53 54 56
213 217 221 224 227 237 251 260 267 273 277 282 284 284 285 287 293 299 301 298 302 316 328 341 345 316 308 316 321 323 330 340 347 349 350 354 353 352 354 356 358 359 359 358 359 3 6 8 8 5 5 4 5 6 5 5 10 19 24 24 20 14 12 15 17 20 26 33 37 40 45 50 53 55
224 229 233 237 242 246 252 257 260 265 270 274 274 270 269 273 281 287 285 283 288 301 313 315 310 293 297 308 315 317 324 333 340 342 345 349 349 348 348 351 351 352 352 352 355 359 2 3 4 4 3 3 2 2 2 1 4 10 18 23 24 19 13 13 15 14 16 23 29 34 39 44 50 53
235 238 240 241 246 247 248 251 255 259 262 265 265 264 265 267 271 277 279 282 287 294 302 309 314 312 310 311 311 311 316 324 331 334 337 342 344 343 344 346 346 346 347 348 351 355 357 357 357 359 0 1 1 0 1 1 2 4 7 13 19 19 16 14 12 10 10 14 18 24 30 35 40 46
242 242 242 242 245 246 243 246 251 255 259 261 263 265 266 270 274 279 282 284 289 295 301 307 312 312 310 308 308 307 310 316 321 324 329 334 336 336 338 341 342 341 343 345 347 350 351 351 351 353 355 358 359 359 360 2 2 2 2 4 7 10 14 14 10 8 9 9 11 14 18 25 28 33
244 244 244 245 247 248 248 250 251 252 258 261 261 264 267 272 279 283 285 289 292 295 298 302 304 304 304 305 306 307 309 310 312 314 320 326 328 330 332 336 337 337 339 341 342 344 345 345 347 349 351 353 354 354 357 2 2 1 1 0 360 1 5 8 6 7 8 7 9 10 7 12 17 18
244 244 244 246 249 251 254 255 254 257 263 267 267 266 267 272 278 283 284 287 289 291 293 294 295 297 299 301 303 305 306 307 309 312 316 321 324 326 328 331 333 332 334 336 336 337 339 341 343 344 346 348 347 347 351 357 360 0 360 360 359 358 0 2 359 0 6 4 4 6 3 5 10 9
243 244 246 247 248 250 251 253 255 257 262 267 269 269 270 272 275 279 281 284 286 289 289 289 290 293 295 297 300 302 303 305 308 312 316 318 321 323 324 325 327 326 327 329 331 332 333 336 338 339 340 341 340 341 345 349 352 356 358 359 359 358 360 1 356 354 0 2 357 355 356 356 357 356
243 244 245 247 247 247 247 251 255 256 257 260 261 263 265 268 270 274 278 283 285 286 287 288 289 292 295 297 299 300 301 303 306 309 312 314 316 317 318 318 318 319 321 322 325 327 327 329 330 331 333 334 333 334 337 339 342 346 351 353 356 357 359 2 359 353 355 356 351 348 345 341 340 336
243 245 246 248 249 249 250 253 256 258 259 261 262 263 264 264 266 269 273 277 280 282 285 288 290 292 293 294 296 297 299 302 304 306 306 308 310 311 311 310 310 311 313 315 318 319 319 322 324 323 323 323 323 323 326 329 332 336 340 343 346 350 353 358 360 357 354 351 346 344 339 329 327 329
242 245 247 248 250 251 252 254 257 258 260 264 267 271 271 269 268 270 274 278 280 283 287 291 296 297 296 295 295 296 299 301 302 303 303 304 306 306 305 304 303 305 308 310 311 312 312 315 318 315 313 311 309 310 312 316 320 324 329 332 334 338 343 348 352 353 352 349 345 344 339 326 319 318
242 245 247 248 251 253 253 253 254 255 258 261 264 267 270 271 271 275 280 283 283 285 288 290 293 295 297 299 299 297 298 299 299 299 300 301 302 303 304 303 302 302 304 305 305 306 309 312 314 312 309 305 303 301 301 304 308 314 319 322 323 326 329 335 341 343 342 342 342 344 341 332 322 313
244 246 247 249 251 252 254 254 253 255 257 258 258 259 263 266 268 272 276 277 280 284 284 282 281 284 291 296 297 296 295 295 295 296 297 297 298 300 302 302 301 300 301 303 303 303 305 309 312 311 306 302 301 300 299 300 303 307 311 314 317 318 320 323 329 333 333 332 334 337 338 334 327 319
247 248 248 250 251 251 253 255 256 257 256 255 253 252 253 256 260 266 267 266 270 275 277 279 280 283 288 290 290 291 291 291 292 293 294 295 296 298 298 299 299 299 300 301 301 301 303 304 306 305 301 299 300 301 301 303 306 309 311 313 316 317 317 318 320 322 323 323 325 328 328 326 323 321
250 251 252 252 252 253 254 255 258 259 258 257 256 255 255 255 258 264 265 262 263 266 272 277 279 282 286 286 285 287 288 289 291 292 292 294 295 296 296 296 296 295 295 297 298 300 302 302 303 302 299 298 301 302 303 305 307 309 311 313 314 314 315 316 317 317 316 315 317 318 319 317 316 315
251 251 252 254 255 255 255 256 258 259 260 261 262 262 262 262 263 265 266 266 266 266 269 274 277 279 281 277 278 283 286 288 290 291 292 292 293 294 295 296 295 293 292 293 293 296 298 297 297 298 295 296 300 301 302 304 306 308 309 310 311 310 311 313 314 315 314 312 312 311 310 310 310 310
253 252 253 255 256 257 257 258 258 259 261 263 264 264 264 263 263 262 262 264 266 265 267 273 278 279 277 273 275 280 283 287 290 292 294 294 293 293 293 295 294 293 292 291 289 289 290 290 291 292 290 291 295 297 299 301 304 306 307 307 307 307 308 310 311 313 313 312 310 308 306 304 304 304
255 256 256 256 257 258 257 258 259 260 261 261 263 264 263 260 259 258 257 259 263 265 270 275 279 281 280 277 277 278 281 285 289 291 294 297 296 294 293 293 292 292 291 290 288 286 284 285 288 289 287 287 290 292 294 297 299 302 304 305 305 304 305 306 308 310 311 310 308 306 303 302 301 300
257 256 256 256 258 260 259 258 259 260 260 260 260 261 261 260 260 260 260 262 265 268 272 273 274 278 279 278 277 279 282 285 288 290 293 295 295 295 295 294 293 292 290 288 288 288 287 287 289 289 287 286 288 290 290 291 292 294 297 299 301 302 301 301 303 306 307 306 305 303 301 299 299 298
257 256 255 254 258 262 261 258 258 259 260 260 260 261 262 261 262 262 263 265 266 269 273 273 272 274 276 277 280 283 285 287 288 289 290 291 292 292 294 294 293 292 290 288 288 289 290 290 290 289 289 288 288 288 288 287 286 286 288 291 294 297 298 297 297 299 302 303 300 298 296 295 295 295
256 259 258 256 258 262 260 257 257 259 260 261 262 263 263 263 262 263 263 264 267 271 273 273 272 274 277 279 281 283 286 288 289 288 287 289 289 289 290 292 292 290 288 286 286 286 287 288 289 289 289 289 290 289 288 287 286 285 285 286 289 292 293 293 292 292 295 298 296 292 291 290 290 291
255 259 260 258 258 260 258 257 257 258 258 260 261 262 264 264 265 264 263 264 267 272 273 272 272 275 278 281 282 283 284 287 288 287 286 288 289 288 289 291 290 288 285 283 282 283 283 284 286 288 289 291 292 291 289 287 287 287 286 287 288 289 290 289 288 288 290 292 290 288 286 286 287 287
251 256 260 261 259 259 258 256 257 257 257 258 259 259 261 263 265 265 266 267 268 271 273 274 274 275 277 279 281 281 282 284 286 286 286 288 290 288 288 288 287 286 282 279 280 281 281 281 283 286 289 290 290 290 289 289 289 289 289 290 289 289 288 288 287 288 289 289 287 284 283 283 284 285
250 255 261 263 262 262 261 259 257 257 257 257 258 258 259 262 263 264 266 267 268 270 272 273 274 275 276 278 277 276 276 278 281 283 283 285 287 286 287 289 288 286 282 279 280 282 282 283 284 287 289 290 290 289 288 290 291 291 291 292 291 290 289 287 286 286 287 287 285 283 282 280 281 282
250 254 258 258 256 256 259 259 258 258 258 259 260 261 263 263 262 263 264 265 266 269 271 272 273 273 274 276 275 272 272 274 276 277 278 278 281 284 287 290 290 287 282 279 280 281 282 284 286 286 287 288 289 290 289 290 290 291 292 292 292 292 292 290 288 286 285 284 283 281 281 279 279 279
252 254 256 256 255 254 255 258 259 259 259 260 262 264 266 265 264 264 265 266 268 270 272 273 274 273 274 275 272 267 268 270 270 271 271 273 277 282 285 287 287 286 283 280 279 280 282 284 286 287 287 289 291 292 292 292 291 290 291 292 291 292 292 292 290 287 284 282 280 279 279 279 278 277
254 257 259 260 260 258 258 259 260 261 261 262 264 266 268 269 268 268 268 268 270 271 271 271 272 272 273 273 269 266 267 269 268 267 267 270 275 279 280 280 282 283 283 281 281 282 283 285 286 288 290 292 293 294 293 293 292 291 291 291 289 289 289 288 287 285 282 280 278 277 276 276 276 275
254 259 261 262 262 261 261 261 261 262 263 264 266 268 269 270 270 271 271 270 269 269 269 270 270 269 269 269 267 265 266 269 268 266 265 267 271 273 273 275 278 282 283 283 284 285 285 286 288 289 291 291 291 291 291 290 289 288 287 286 286 286 286 285 284 283 281 280 279 278 276 275 275 276
255 258 260 261 262 262 262 261 261 262 263 265 266 267 268 269 270 271 271 269 268 268 268 269 269 268 266 265 264 266 269 270 267 264 264 266 267 267 267 271 276 280 282 283 284 285 286 287 288 289 289 289 289 288 288 288 287 286 285 284 283 283 283 283 283 282 282 281 281 280 280 279 278 278
257 258 260 261 261 261 261 261 261 262 263 265 266 265 265 265 267 270 270 267 266 268 270 273 273 270 265 261 261 266 271 271 266 263 264 263 262 262 264 268 273 277 279 281 282 283 284 286 287 287 287 287 287 287 287 286 286 285 285 284 283 283 282 282 283 283 282 282 281 280 280 280 280 280
256 257 257 256 255 256 257 257 258 258 258 259 260 260 260 261 264 268 270 268 269 272 275 277 275 271 269 266 263 265 268 267 263 261 261 260 260 262 264 266 271 275 277 278 280 281 282 283 284 284 284 284 284 284 284 284 283 283 283 283 283 282 282 281 281 281 281 281 281 280 279 279 278 278
249 250 250 248 248 251 253 255 257 258 258 258 258 259 261 264 266 269 269 271 274 274 271 269 267 267 269 267 262 263 271 270 265 262 260 259 261 264 266 270 273 275 276 278 279 280 280 280 281 281 281 281 280 280 280 280 280 280 280 281 281 281 280 280 279 279 279 279 279 278 278 278 277 277
247 248 250 251 252 253 255 257 260 262 263 264 265 266 267 269 271 271 270 271 271 266 259 258 257 257 257 256 257 269 282 281 273 269 266 266 268 270 272 274 275 274 274 275 276 276 277 277 277 277 277 278 278 278 278 278 278 278 278 278 278 278 277 277 276 276 276 276 277 276 276 276 276 276
252 253 255 256 257 257 259 261 262 264 265 266 267 269 270 271 272 272 272 273 272 268 263 261 256 250 251 257 265 275 284 285 281 277 274 272 272 272 273 273 272 271 270 270 271 272 273 274 275 275 275 276 276 276 277 276 276 275 275 275 275 274 274 274 274 274 274 275 275 275 275 275 275 276
253 255 257 258 259 260 261 262 263 264 264 264 266 268 269 271 272 272 271 270 267 262 260 260 256 255 260 266 269 276 284 287 284 279 276 272 268 267 267 267 266 266 266 267 269 270 272 273 274 274 274 274 274 274 274 274 274 273 273 273 272 272 272 272 273 273 273 274 274 274 274 275 275 276
253 254 256 258 259 260 262 263 263 264 264 264 266 267 269 270 271 270 269 266 258 253 255 258 258 259 263 267 271 278 284 285 280 276 272 268 266 266 266 265 264 264 265 267 268 269 270 271 272 273 273 273 273 272 272 272 272 271 271 270 270 270 271 271 271 272 273 273 274 274 275 275 276 276
255 254 255 257 258 260 261 262 263 263 263 264 266 267 268 269 269 269 269 267 261 257 258 260 261 263 267 271 276 280 281 278 274 272 269 268 268 268 269 269 268 268 268 268 268 269 269 270 271 271 272 272 272 272 271 270 269 270 270 269 269 269 270 270 271 272 273 274 274 275 276 276 277 277
258 257 257 257 258 259 260 261 262 263 263 264 265 265 266 267 267 268 268 267 264 262 261 262 262 265 268 271 273 274 273 271 270 269 270 270 270 269 270 271 270 270 271 271 271 271 271 272 272 272 271 271 271 272 271 270 269 269 269 269 269 268 269 271 272 273 273 274 275 276 276 277 277 278
258 258 258 258 259 260 261 262 263 263 264 265 265 265 265 265 265 266 266 266 265 264 264 264 265 266 267 268 270 271 272 272 272 271 272 272 271 271 272 273 272 272 273 273 272 271 272 272 272 272 272 272 272 272 272 271 270 269 269 269 269 270 270 271 273 274 275 275 276 277 277 278 278 279
259 259 259 259 259 259 260 261 262 263 264 265 266 267 267 267 267 266 266 266 265 264 263 262 262 262 263 265 268 270 273 273 273 273 274 275 275 274 275 275 276 275 274 274 272 272 272 273 273 273 273 273 273 272 272 271 271 271 270 269 269 270 271 272 273 274 275 276 277 278 278 279 280 280
261 261 261 261 260 260 261 261 262 262 263 264 264 266 267 267 268 268 267 267 267 267 266 265 265 265 266 268 270 273 274 273 272 273 275 275 276 276 276 276 276 275 274 273 273 274 275 275 274 273 273 273 273 273 272 272 271 271 271 271 270 270 272 273 274 274 275 276 277 278 279 280 280 281
264 264 263 263 263 263 263 263 263 263 263 264 264 265 265 266 266 267 268 267 267 267 267 268 268 269 270 271 272 273 272 271 272 274 275 275 275 276 276 276 275 275 274 273 274 277 278 277 276 274 273 273 273 272 272 271 271 271 271 271 271 270 270 271 272 274 274 275 276 277 278 279 280 280
266 266 266 265 265 265 265 265 265 265 265 265 265 265 266 266 266 267 267 268 268 267 268 268 268 268 268 268 269 269 268 268 269 270 270 270 270 271 272 273 273 274 274 275 276 278 279 278 277 275 273 272 272 272 271 271 270 271 271 272 271 271 270 270 270 271 272 273 275 276 277 278 279 280
267 267 267 267 267 267 267 267 267 268 268 267 267 267 267 267 267 268 268 269 269 269 268 268 267 267 266 265 266 267 267 268 269 269 268 269 270 271 271 270 271 272 274 275 276 278 278 278 278 277 275 273 271 270 269 269 269 270 270 271 271 271 271 271 271 271 271 272 274 275 277 279 280 281
269 269 269 269 269 269 268 268 268 268 269 269 269 269 269 268 268 269 269 269 270 270 269 267 266 266 266 266 266 268 268 269 269 269 269 270 271 272 272 272 272 273 274 275 276 276 277 277 278 278 277 275 273 270 268 268 269 270 271 272 273 274 275 276 277 276 276 275 275 277 279 280 281 282